Location: Ar Ranvel
(48.3000°N, 4.8833°W)
Time: 05:26:43
(UTC+00:00)

Cosmos 1110 Rocket - Visible Passes

Search period start: 18 October 2021 00:00
Search period end: 28 October 2021 00:00
Orbit: 753 x 780 km, 74.0° (Epoch: 17 October)

Date Brightness Start Highest point End Pass type
(mag) Time Alt. Az. Time Alt. Az. Time Alt. Az.
21 Oct 6.5 06:10:16 10° N 06:13:36 17° NE 06:16:55 10° E visible
22 Oct 6.7 05:33:53 10° NNE 05:35:39 12° NE 05:37:26 10° ENE visible
24 Oct 6.2 05:59:29 10° N 06:03:38 24° NE 06:07:46 10° ESE visible
25 Oct 6.5 05:22:35 10° N 05:25:48 16° NE 05:29:00 10° E visible
26 Oct 6.8 04:46:20 10° NNE 04:47:51 11° NE 04:49:21 10° ENE visible
27 Oct 5.6 05:48:52 10° N 05:53:34 33° ENE 05:58:15 10° ESE visible
